• Processing (Info)

  • MPEC 2020-U08 : 2020 TU5

    The following Minor Planet Electronic Circular may be linked-to from your own Web pages, but must not otherwise be redistributed electronically.

    A form allowing access to any MPEC is at the bottom of this page.


    Read MPEC 2020-U07 Read MPEC 2020-U09


    M.P.E.C. 2020-U08                              Issued 2020 October 16, 11:21 UT
    
         The Minor Planet Electronic Circulars contain information on unusual
             minor planets and routine data on comets.  They are published
        on behalf of Division F of the International Astronomical Union by the
              Minor Planet Center, Smithsonian Astrophysical Observatory,
                              Cambridge, MA 02138, U.S.A.
    
                 Prepared using the Tamkin Foundation Computer Network
    
                                  MPC@CFA.HARVARD.EDU
                URL https://www.minorplanetcenter.net/    ISSN 1523-6714
    
                                    2020 TU5                                 
    
    
    Observations:
         K20T05U* C2020 10 13.50451108 07 48.59 +26 11 58.8          20.89GVEU008G96
         K20T05U  C2020 10 13.50979108 07 50.01 +26 12 40.2          20.80GVEU008G96
         K20T05U  C2020 10 13.51506508 07 51.49 +26 13 21.5          20.82GVEU008G96
         K20T05U  C2020 10 13.52034108 07 52.92 +26 14 02.5          21.15GVEU008G96
         K20T05U bC2020 10 14.03949708 10 21.97 +27 21 46.1          20.8 GVEU008L01
         K20T05U bC2020 10 14.04457508 10 23.35 +27 22 25.9          21.0 GVEU008L01
         K20T05U bC2020 10 14.04918008 10 24.69 +27 23 02.6          21.0 GVEU008L01
         K20T05U pC2020 10 14.05878208 10 27.51 +27 24 18.7          20.9 GVEU008L01
         K20T05U KC2020 10 14.45716408 12 24.61 +28 16 53.4          21.06GVEU008I52
         K20T05U KC2020 10 14.45926608 12 25.25 +28 17 11.6          20.58GVEU008I52
         K20T05U KC2020 10 14.46136808 12 25.82 +28 17 28.6          20.15GVEU008I52
         K20T05U 2C2020 10 15.22898708 16 19.263+29 59 32.68         21.3 GVEU008J04
         K20T05U 2C2020 10 15.23726108 16 21.807+30 00 39.14         20.9 GVEU008J04
         K20T05U 2C2020 10 15.24431708 16 23.955+30 01 36.00         20.5 GVEU008J04
         K20T05U KC2020 10 15.48242708 17 38.84 +30 33 25.2          21.45GVEU008I52
         K20T05U KC2020 10 15.48410808 17 39.30 +30 33 39.6          21.24GVEU008I52
         K20T05U KC2020 10 15.48578908 17 39.81 +30 33 52.5          20.85GVEU008I52
         K20T05U KC2020 10 16.45325408 22 54.73 +32 44 08.9                VEU008I52
         K20T05U KC2020 10 16.45686708 22 55.95 +32 44 38.1          20.78GVEU008I52
    
    Observer details:
    G96 Mt. Lemmon Survey.  Observer G. J. Leonard.  Measurers E. J. Christensen,
        G. A. Farneth, D. C. Fuls, A. R. Gibbs, A. D. Grauer, H. Groeller, R. A.
        Kowalski, S. M. Larson, G. J. Leonard, T. A. Pruyne, D. Rankin, R. L.
        Seaman, F. C. Shelly, K. W. Wierzchos.  1.5-m reflector + 10K CCD.
    I52 Steward Observatory, Mt. Lemmon Station.  Observers D. C. Fuls, H.
        Groeller.  Measurers E. J. Christensen, G. A. Farneth, D. C. Fuls, A. R.
        Gibbs, A. D. Grauer, H. Groeller, R. A. Kowalski, S. M. Larson, G. J.
        Leonard, T. A. Pruyne, D. Rankin, R. L. Seaman, F. C. Shelly, K. W.
        Wierzchos.  1.0-m reflector + CCD.
    J04 ESA Optical Ground Station, Tenerife.  Observer P. Ruiz.  Measurers M.
        Micheli, D. Koschny, L. Conversi, A. Knofel, M. Busch, E. Schwab.  1.0-m
        f/4.4 reflector + CCD.
    L01 Visnjan Observatory, Tican.  Observers K. Korlevic, I. Lyon.  Measurer K.
        Korlevic.  1.0-m f/2.9 reflector + CCD.
    
    Orbital elements:
    2020 TU5                                            PHA, Earth MOID = 0.0307 AU
    Epoch 2020 Dec. 17.0 TT = JDT 2459200.5                 Bell                    
    M  38.32370              (2000.0)            P               Q                  
    n   0.47931066     Peri.  345.52269     +0.80436279     -0.17259977             
    a   1.6170545      Node    42.63595     +0.59345027     +0.18735809             
    e   0.3729998      Incl.   57.07031     +0.02858828     +0.96700893             
    P   2.06           H   20.43          G   0.15           U   9                  
    Residuals in seconds of arc
    201013 G96  0.2+  0.0+    201014 L01  0.2-  0.1+    201015 I52  0.9+  0.4-
    201013 G96  0.2-  0.1+    201014 I52  0.2-  1.0-    201015 I52  0.1+  0.4+
    201013 G96  0.3+  0.1+    201014 I52  0.1+  0.5+    201015 I52  0.0+  0.3-
    201013 G96  0.0+  0.2-    201014 I52  0.5-  0.7+    201016 I52  0.3-  0.1+
    201014 L01  0.1-  0.2+    201015 J04  0.2-  0.1+    201016 I52  0.1+  0.1-
    201014 L01  1.2-  0.2-    201015 J04  0.2+  0.0-
    201014 L01  1.0-  0.0+    201015 J04  0.3+  0.1+
    
    Ephemeris:
    2020 TU5                 a,e,i = 1.62, 0.37, 57                  q = 1.0139
    Date    TT    R. A. (2000) Decl.     Delta      r    Elong.  Phase     V
    2020 09 16    06 54 36.7 -13 08 29   0.6890  1.0216    71.4    68.9    22.1
    ...
    2020 10 01    07 24 29.7 +03 23 04   0.5201  1.0144    76.5    73.6    21.6
    ...
    2020 10 09    07 49 03.3 +16 55 28   0.4488  1.0203    79.8    74.5    21.3
    ...
    2020 10 15    08 15 07.4 +29 28 54   0.4150  1.0291    82.5    73.9    21.2
    2020 10 16    08 20 23.7 +31 42 54   0.4115  1.0309    83.0    73.7    21.1
    2020 10 17    08 25 59.6 +33 58 10   0.4087  1.0328    83.4    73.4    21.1
    ...
    2020 10 23    09 08 12.5 +47 21 00   0.4071  1.0463    85.7    71.5    21.1
    ...
    2020 10 31    10 38 00.5 +61 38 44   0.4434  1.0692    87.5    68.1    21.2
    ...
    2020 11 15    14 32 45.4 +68 09 21   0.5888  1.1251    87.1    61.4    21.7
    
    M. P. C. Staff               (C) Copyright 2020 MPC           M.P.E.C. 2020-U08
    


    Read MPEC 2020-U07 Read MPEC 2020-U09


    MPEC number:

    Enter an MPEC number in one of the following forms:

    • 1997-B01 (the full form)
    • J97B01 (the packed version of the full form)
    • B01 (the abbreviated form)